STARLINK-1698 (46547 NORAD) Tracking and Keplerian Element Data

This shows tracking and keplerian element data for the satellite.

Feedback or suggestion? Click here.




ElementValue
Catalog46547
NameSTARLINK-1698
Epoch Orbit184
Epoch Day336.91667824
Epoch Year2020
RAAN172.7627
Inclination53.0007
Eccentricity0.0001687
Argument of Perigee68.6372
Mean Anonmoly236.5237
Mean Motion15.05588828
Decay Rate0.0001694
L11 46547U 20070R 20336.91667824 .00016940 00000-0 11787-2 0 9998
L22 46547 53.0007 172.7627 0001687 68.6372 236.5237 15.05588828 1840

Live tracking and technical data element details for STARLINK-1698 (NORAD 46547). STARLINK-1698 can be tracked NOW for your location showing map with azimuth and elevation plus other details from your city location.

Track the satellite on the map from your city or location and see movement details for azimuth, elevation, latitude, longitude, range, height, and movement on the map or in text.







IsCatalogInMostPopularTable: catalog: 46547, numindb: 15
Update: records affected: 1



GetName: 46547 STARLINK-1698

Hit Count: updated at: Wed, 02 Dec 2020 18:34:52 GMT